Weather in Ghat

Libya     24°57′57″N   10°11′01″E
temp.,
°C
wind,
m/s
gust,
m/s
humid.,
%
clouds,
%
prec.,
mm/h
press.,
hPa
HPBL,
m
7 march, sun
sun723:00+20e12150 0.0 101824
02:00+18s12160 0.0 101824
05:00+17sse22180 0.0 101723
08:00+18s23170 0.0 101823
11:00+29s68100 0.0 1017857
14:00+33sw7770 0.0 10144374
17:00+33wsw7770 0.0 10104216
20:00+28s6897 0.0 101187
8 march, mon
mon823:00+24s561294 0.0 101373
02:00+23s451384 0.0 101238
05:00+22ssw451532 0.0 101148
08:00+22ssw451543 0.0 101154
11:00+31sw11129100 0.0 10121776
14:00+33sw1114899 0.0 10083929
17:00+34wsw1115849 0.0 10064516
20:00+29wnw5121574 0.0 1008323
9 march, tue
tue923:00+26ese3419100 0.0 101046
02:00+24nne3425100 0.0 101160
05:00+19wnw2223100 0.0 101023
08:00+18wnw112486 0.0 101123
11:00+23n011792 0.0 1012545
14:00+30ssw151389 0.0 10091573
17:00+34w10111191 0.0 10064111
20:00+27nne231691 0.0 100833
10 march, wed
wed1023:00+25n122083 0.0 101124
02:00+21nw122952 0.0 101223
05:00+19wnw113415 0.0 101123
08:00+19sw01359 0.0 101223
11:00+27e131979 0.0 1014870
14:00+32e651483 0.0 10112340
17:00+33ese471135 0.0 10093665
20:00+25nnw10142334 0.0 1011535
11 march, thu
thu1123:00+20nnw510322 0.0 1015479
02:00+18nnw35352 0.0 1015181
05:00+16nnw34409 0.0 1015109
08:00+16nnw23436 0.0 101587
11:00+23ese792733 0.0 10151185
14:00+29se9101439 0.0 10101660
17:00+32se1115982 0.0 10062887
20:00+28ese14201385 0.0 1007616